Weather History for Cottonwood Pass, CO

Change the Weather History Date:

Monday, May 27, 2013

  Actual Average Record
Temperature  
Mean Temperature 57 °F -  
Max Temperature 66 °F - - ()
Min Temperature 48 °F - - ()
Degree Days  
Heating Degree Days 8    
Growing Degree Days 7 (Base 50)    
Moisture  
Dew Point 1 °F    
Average Humidity 11    
Maximum Humidity 19    
Minimum Humidity 5    
Precipitation  
Precipitation 0.00 in - - ()
Sea Level Pressure  
Sea Level Pressure 30.15 in    
Wind  
Wind Speed 8 mph (WNW)    
Max Wind Speed 23 mph    
Max Gust Speed 32 mph    
Visibility 10 miles    
Events      
T = Trace of Precipitation, MM = Missing Value Source: NWS Daily Summary

Daily Weather History Graph

Daily Weather History Graph

Search for Another Location

Airport:

Trip Planner

Search our weather history database for the weather conditions in past years. The results will help you decide how hot, cold, wet, or windy it might be!

Date:

Astronomy

May. 27, 2013 Rise Set
Actual Time 5:43 AM MDT 8:20 PM MDT
Civil Twilight 5:12 AM MDT 8:51 PM MDT
Nautical Twilight 4:34 AM MDT 9:30 PM MDT
Astronomical Twilight 3:51 AM MDT 10:13 PM MDT
Moon 11:02 PM MDT (5/27) 8:23 AM MDT (5/27)
Length of Visible Light 15h 38m
Length of Day
14h 36m
Waning Gibbous, 90% of the Moon is Illuminated
May 27
Waning Gibbous
May 31
Last Quarter
Jun 8
New
Jun 16
First Quarter
Jun 23
Full

Hourly Weather History & Observations

Time (MDT) Temp. Dew Point Humidity Pressure Visibility Wind Dir Wind Speed Gust Speed Precip Events Conditions
12:17 AM 55.4 °F 3.2 °F 12% 30.24 in 10.0 mi West 13.8 mph 24.2 mph N/A   Clear
12:37 AM 53.6 °F 5.0 °F 14% 30.25 in 10.0 mi West 6.9 mph - N/A   Clear
12:57 AM 51.8 °F 5.0 °F 15% 30.25 in 10.0 mi West 8.1 mph - N/A   Clear
1:16 AM 51.8 °F 8.6 °F 18% 30.24 in 10.0 mi NW 4.6 mph - N/A   Clear
1:37 AM 50.0 °F 8.6 °F 19% 30.23 in 10.0 mi West 6.9 mph - N/A   Clear
1:57 AM 53.6 °F 1.4 °F 12% 30.22 in 10.0 mi WSW 11.5 mph - N/A   Clear
2:17 AM 53.6 °F -2.2 °F 10% 30.22 in 10.0 mi WSW 13.8 mph - N/A   Clear
2:37 AM 53.6 °F -4.0 °F 9% 30.21 in 10.0 mi WSW 12.7 mph - N/A   Clear
2:56 AM 53.6 °F -5.8 °F 9% 30.20 in 10.0 mi WSW 10.4 mph 17.3 mph N/A   Clear
3:17 AM 51.8 °F -4.0 °F 10% 30.19 in 10.0 mi West 10.4 mph - N/A   Clear
3:37 AM 50.0 °F -0.4 °F 13% 30.18 in 10.0 mi West 11.5 mph 17.3 mph N/A   Clear
3:57 AM 50.0 °F -4.0 °F 11% 30.18 in 10.0 mi West 6.9 mph - N/A   Clear
4:17 AM 51.8 °F -7.6 °F 8% 30.18 in 10.0 mi West 5.8 mph - N/A   Clear
4:37 AM 50.0 °F -5.8 °F 10% 30.18 in 10.0 mi West 3.5 mph - N/A   Clear
4:56 AM 50.0 °F -4.0 °F 11% 30.17 in 10.0 mi West 8.1 mph - N/A   Clear
5:17 AM 50.0 °F -5.8 °F 10% 30.18 in 10.0 mi West 3.5 mph - N/A   Clear
5:37 AM 50.0 °F -5.8 °F 10% 30.17 in 10.0 mi Calm Calm - N/A   Clear
5:57 AM 50.0 °F -4.0 °F 11% 30.18 in 10.0 mi NW 4.6 mph - N/A   Clear
6:17 AM 50.0 °F -4.0 °F 11% 30.18 in 10.0 mi NW 3.5 mph - N/A   Clear
6:37 AM 48.2 °F -0.4 °F 13% 30.18 in 10.0 mi NW 4.6 mph - N/A   Clear
6:57 AM 50.0 °F -0.4 °F 13% 30.18 in 10.0 mi NW 6.9 mph - N/A   Clear
7:17 AM 50.0 °F 1.4 °F 14% 30.18 in 10.0 mi North 4.6 mph - N/A   Clear
7:37 AM 51.8 °F 1.4 °F 13% 30.18 in 10.0 mi North 3.5 mph - N/A   Clear
7:57 AM 53.6 °F 3.2 °F 13% 30.18 in 10.0 mi North 3.5 mph - N/A   Clear
8:17 AM 53.6 °F 3.2 °F 13% 30.19 in 10.0 mi West 4.6 mph - N/A   Clear
8:37 AM 55.4 °F 3.2 °F 12% 30.19 in 10.0 mi West 3.5 mph - N/A   Clear
8:57 AM 57.2 °F 5.0 °F 12% 30.19 in 10.0 mi West 4.6 mph - N/A   Clear
9:17 AM 57.2 °F 5.0 °F 12% 30.19 in 10.0 mi North 4.6 mph 20.7 mph N/A   Clear
9:37 AM 59.0 °F 5.0 °F 12% 30.19 in 10.0 mi WSW 3.5 mph - N/A   Clear
9:57 AM 59.0 °F 5.0 °F 12% 30.18 in 10.0 mi Calm Calm - N/A   Clear
10:17 AM 59.0 °F 3.2 °F 11% 30.17 in 10.0 mi NW 3.5 mph - N/A   Clear
10:37 AM 59.0 °F 3.2 °F 11% 30.17 in 10.0 mi WSW 10.4 mph 25.3 mph N/A   Clear
10:56 AM 59.0 °F 1.4 °F 10% 30.17 in 10.0 mi West 10.4 mph 27.6 mph N/A   Clear
11:17 AM 60.8 °F 1.4 °F 9% 30.17 in 10.0 mi WSW 4.6 mph 21.9 mph N/A   Clear
11:37 AM 60.8 °F -0.4 °F 8% 30.17 in 10.0 mi West 10.4 mph 23.0 mph N/A   Clear
11:57 AM 64.4 °F -0.4 °F 7% 30.16 in 10.0 mi West 10.4 mph 17.3 mph N/A   Clear
12:17 PM 62.6 °F -0.4 °F 8% 30.16 in 10.0 mi WNW 8.1 mph 24.2 mph N/A   Clear
12:37 PM 60.8 °F -4.0 °F 7% 30.15 in 10.0 mi WSW 19.6 mph 29.9 mph N/A   Clear
12:57 PM 62.6 °F -5.8 °F 6% 30.14 in 10.0 mi WNW 8.1 mph 20.7 mph N/A   Clear
1:17 PM 60.8 °F -5.8 °F 7% 30.15 in 10.0 mi West 16.1 mph 32.2 mph N/A   Clear
1:36 PM 60.8 °F -4.0 °F 7% 30.14 in 10.0 mi WSW 15.0 mph 26.5 mph N/A   Clear
1:57 PM 60.8 °F -0.4 °F 8% 30.13 in 10.0 mi SW 17.3 mph 28.8 mph N/A   Clear
2:17 PM 60.8 °F -4.0 °F 7% 30.13 in 10.0 mi West 19.6 mph 32.2 mph N/A   Clear
2:37 PM 62.6 °F -4.0 °F 7% 30.11 in 10.0 mi SW 19.6 mph 25.3 mph N/A   Clear
2:57 PM 62.6 °F -0.4 °F 8% 30.11 in 10.0 mi NW 8.1 mph 21.9 mph N/A   Clear
3:17 PM 66.2 °F -4.0 °F 6% 30.11 in 10.0 mi WSW 16.1 mph 25.3 mph N/A   Clear
3:37 PM 62.6 °F 3.2 °F 9% 30.11 in 10.0 mi WSW 8.1 mph - N/A   Scattered Clouds
3:57 PM 66.2 °F -2.2 °F 6% 30.10 in 10.0 mi West 6.9 mph - N/A   Scattered Clouds
4:17 PM 64.4 °F -2.2 °F 7% 30.09 in 10.0 mi West 5.8 mph 16.1 mph N/A   Clear
4:37 PM 60.8 °F -4.0 °F 7% 30.09 in 10.0 mi NW 9.2 mph 25.3 mph N/A   Scattered Clouds
4:57 PM 62.6 °F -2.2 °F 7% 30.08 in 10.0 mi West 12.7 mph 20.7 mph N/A   Scattered Clouds
5:17 PM 66.2 °F -5.8 °F 5% 30.08 in 10.0 mi West 13.8 mph 19.6 mph N/A   Clear
5:37 PM 64.4 °F -4.0 °F 6% 30.07 in 10.0 mi NNW 5.8 mph - N/A   Clear
5:57 PM 64.4 °F -2.2 °F 7% 30.07 in 10.0 mi North 5.8 mph - N/A   Clear
6:17 PM 60.8 °F 3.2 °F 10% 30.07 in 10.0 mi NNE 4.6 mph - N/A   Clear
6:37 PM 60.8 °F 1.4 °F 9% 30.07 in 10.0 mi North 8.1 mph - N/A   Clear
6:57 PM 59.0 °F -4.0 °F 8% 30.08 in 10.0 mi WSW 23.0 mph 32.2 mph N/A   Scattered Clouds
7:17 PM 60.8 °F 5.0 °F 11% 30.09 in 10.0 mi NW 8.1 mph - N/A   Scattered Clouds
7:37 PM 57.2 °F 6.8 °F 13% 30.09 in 10.0 mi NNW 3.5 mph - N/A   Clear
7:57 PM 55.4 °F 8.6 °F 15% 30.09 in 10.0 mi NNE 4.6 mph - N/A   Clear
8:17 PM 55.4 °F 10.4 °F 17% 30.10 in 10.0 mi Calm Calm - N/A   Clear
8:37 PM 53.6 °F 10.4 °F 18% 30.11 in 10.0 mi Calm Calm - N/A   Clear
8:57 PM 53.6 °F 8.6 °F 16% 30.12 in 10.0 mi WNW 3.5 mph - N/A   Clear
9:17 PM 53.6 °F 6.8 °F 15% 30.12 in 10.0 mi WNW 8.1 mph - N/A   Clear
9:37 PM 55.4 °F 3.2 °F 12% 30.12 in 10.0 mi NW 5.8 mph - N/A   Clear
9:57 PM 51.8 °F 8.6 °F 18% 30.13 in 10.0 mi NNW 4.6 mph 16.1 mph N/A   Clear
10:17 PM 51.8 °F 8.6 °F 18% 30.14 in 10.0 mi NW 5.8 mph - N/A   Clear
10:37 PM 51.8 °F 8.6 °F 18% 30.14 in 10.0 mi WNW 5.8 mph - N/A   Clear
10:57 PM 51.8 °F 8.6 °F 18% 30.13 in 10.0 mi WNW 6.9 mph - N/A   Clear
11:16 PM 51.8 °F 8.6 °F 18% 30.12 in 10.0 mi WNW 4.6 mph - N/A   Clear
11:37 PM 51.8 °F 8.6 °F 18% 30.12 in 10.0 mi West 4.6 mph - N/A   Clear
11:57 PM 51.8 °F 8.6 °F 18% 30.12 in 10.0 mi WNW 3.5 mph - N/A   Clear